Terug naar catalogus

STARLINK-34000

ActiefCommunicatieVLEO
NORAD 64180·PAYLOAD·🇺🇸 United States

Gelanceerd May 28, 2025 vanaf Cape Canaveral Space Force Station

Loading…

Volgende Passages (komende 24 uur)

TLE

VersSource: CelesTrak SupGP

Epoch: Sep 14, 2026, 22:56 UTC

1 64180C 25113L   26257.95604167  .00050325  00000+0  16199-2 0  2570
2 64180  53.1577 291.1337 0001223  79.5150 329.1395 15.31646251    17

Volg STARLINK-34000 in realtime met AllMySat

Download on the App Store